TimeCST,TemperatureF,Dew PointF,Humidity,Sea Level PressureIn,VisibilityMPH,Wind Direction,Wind SpeedMPH,Gust SpeedMPH,PrecipitationIn,Events,Conditions,WindDirDegrees,DateUTC
12:54 AM,21.9,14.0,72,30.41,10.0,NNW,3.5,-,N/A,,Clear,340,2012-11-27 06:54:00
1:54 AM,21.0,14.0,74,30.43,10.0,North,4.6,-,N/A,,Clear,350,2012-11-27 07:54:00
2:54 AM,19.9,12.9,74,30.42,10.0,North,3.5,-,N/A,,Clear,360,2012-11-27 08:54:00
3:54 AM,19.0,12.0,74,30.41,10.0,North,3.5,-,N/A,,Clear,360,2012-11-27 09:54:00
4:54 AM,18.0,10.9,74,30.42,10.0,Calm,Calm,-,N/A,,Clear,0,2012-11-27 10:54:00
5:54 AM,17.1,10.9,77,30.42,10.0,NNW,3.5,-,N/A,,Clear,340,2012-11-27 11:54:00
6:54 AM,16.0,10.0,77,30.46,10.0,WNW,3.5,-,N/A,,Clear,290,2012-11-27 12:54:00
7:54 AM,17.1,10.9,77,30.49,10.0,West,3.5,-,N/A,,Clear,270,2012-11-27 13:54:00
8:54 AM,23.0,12.0,63,30.48,10.0,North,3.5,-,N/A,,Clear,10,2012-11-27 14:54:00
9:54 AM,26.1,10.9,53,30.47,10.0,Calm,Calm,-,N/A,,Clear,0,2012-11-27 15:54:00
10:54 AM,28.0,10.9,49,30.46,10.0,Calm,Calm,-,N/A,,Clear,0,2012-11-27 16:54:00
11:54 AM,30.0,12.9,49,30.42,10.0,Calm,Calm,-,N/A,,Clear,0,2012-11-27 17:54:00
12:54 PM,32.0,12.0,44,30.39,10.0,Calm,Calm,-,N/A,,Clear,0,2012-11-27 18:54:00
1:54 PM,33.8,10.4,38,30.33,10.0,Variable,3.5,-,N/A,,Clear,0,2012-11-27 19:54:00
2:54 PM,35.1,12.9,40,30.34,10.0,SSW,6.9,-,N/A,,Clear,200,2012-11-27 20:54:00
3:54 PM,33.1,12.9,43,30.33,10.0,SW,6.9,-,N/A,,Clear,220,2012-11-27 21:54:00
4:54 PM,30.0,12.9,49,30.32,10.0,SSW,6.9,-,N/A,,Clear,210,2012-11-27 22:54:00
5:54 PM,28.9,14.0,54,30.33,10.0,SSW,4.6,-,N/A,,Scattered Clouds,210,2012-11-27 23:54:00
6:54 PM,30.0,14.0,51,30.32,10.0,SSW,8.1,-,N/A,,Partly Cloudy,200,2012-11-28 00:54:00
7:54 PM,30.0,15.1,54,30.33,10.0,SW,6.9,-,N/A,,Clear,220,2012-11-28 01:54:00
8:54 PM,30.9,15.1,52,30.33,10.0,SW,8.1,-,N/A,,Clear,230,2012-11-28 02:54:00
9:54 PM,30.0,17.1,59,30.33,10.0,SSW,6.9,-,N/A,,Clear,210,2012-11-28 03:54:00
10:54 PM,28.9,17.1,61,30.33,10.0,WSW,5.8,-,N/A,,Mostly Cloudy,240,2012-11-28 04:54:00
11:54 PM,27.0,16.0,63,30.33,10.0,SW,3.5,-,N/A,,Clear,220,2012-11-28 05:54:00